Moses Lake, WA

9:29 AM PST on November 24, 2017 (GMT -0800)
Grant County International

Weather History for KMWH - September, 2012

Change the Weather History Date:

Friday, September 28, 2012

  Actual Average Record
Temperature  
Mean Temperature 61 °F 57 °F  
Max Temperature 78 °F 72 °F 89 °F (2003)
Min Temperature 44 °F 42 °F 27 °F (1985)
Degree Days  
Heating Degree Days 4 8  
Month to date heating degree days 58 112  
Since 1 July heating degree days 70 132  
Cooling Degree Days 0 0  
Month to date cooling degree days 37 44  
Year to date cooling degree days 718 614  
Growing Degree Days 11 (Base 50)    
Moisture  
Dew Point 42 °F    
Average Humidity 50    
Maximum Humidity 70    
Minimum Humidity 29    
Precipitation  
Precipitation 0.00 in 0.02 in 0.16 in (2007)
Month to date precipitation T 0.34  
Year to date precipitation 5.58 5.77  
Sea Level Pressure  
Sea Level Pressure 29.94 in    
Wind  
Wind Speed 5 mph (East)    
Max Wind Speed 10 mph    
Max Gust Speed 13 mph    
Visibility 9 miles    
Events      
T = Trace of Precipitation, MM = Missing Value Source: NWS Daily Summary

Daily Weather History Graph

Daily Weather History Graph

Search for Another Location

Airport or City:

Trip Planner

Search our weather history database for the weather conditions in past years. The results will help you decide how hot, cold, wet, or windy it might be!

Date:

Astronomy

Sep. 28, 2012 Rise Set
Actual Time 6:52 AM PDT 6:41 PM PDT
Civil Twilight 6:22 AM PDT 7:12 PM PDT
Nautical Twilight 5:46 AM PDT 7:47 PM PDT
Astronomical Twilight 5:10 AM PDT 8:23 PM PDT
Moon 5:46 PM PDT (9/28) 5:26 AM PDT (9/28)
Length of Visible Light 12h 49m
Length of Day
11h 48m
Waxing Gibbous, 98% of the Moon is Illuminated
Sep 28
Waxing Gibbous
Sep 29
Full
Oct 8
Last Quarter
Oct 15
New
Oct 21
First Quarter

Hourly Weather History & Observations

Time (PDT) Temp. Windchill Dew Point Humidity Pressure Visibility Wind Dir Wind Speed Gust Speed Precip Events Conditions
12:52 AM 50.0 °F - 39.0 °F 66% 29.95 in 10.0 mi NNE 3.5 mph - N/A   Clear
1:52 AM 50.0 °F - 39.2 °F 66% 29.95 in 10.0 mi North 5.8 mph - N/A   Clear
2:52 AM 48.9 °F - 37.9 °F 66% 29.94 in 10.0 mi North 5.8 mph - N/A   Clear
3:52 AM 50.0 °F - 37.0 °F 61% 29.94 in 10.0 mi North 9.2 mph - N/A   Clear
4:52 AM 48.9 °F - 36.0 °F 61% 29.94 in 10.0 mi NNE 5.8 mph - N/A   Clear
5:52 AM 46.9 °F - 36.0 °F 66% 29.95 in 10.0 mi North 6.9 mph - N/A   Clear
6:52 AM 45.0 °F 41.8 °F 36.0 °F 71% 29.95 in 10.0 mi North 5.8 mph - N/A   Clear
7:52 AM 48.0 °F - 37.0 °F 66% 29.97 in 10.0 mi NNE 4.6 mph - N/A   Clear
8:52 AM 55.0 °F - 39.0 °F 55% 29.98 in 9.0 mi ENE 3.5 mph - N/A   Clear
9:52 AM 59.0 °F - 39.9 °F 49% 29.98 in 8.0 mi Calm Calm - N/A   Clear
10:52 AM 64.0 °F - 41.0 °F 43% 29.97 in 8.0 mi Calm Calm - N/A   Clear
11:52 AM 68.0 °F - 42.1 °F 39% 29.96 in 9.0 mi Calm Calm - N/A   Clear
12:52 PM 73.9 °F - 39.9 °F 29% 29.94 in 10.0 mi SSW 5.8 mph - N/A   Clear
1:52 PM 75.0 °F - 42.1 °F 31% 29.92 in 9.0 mi South 5.8 mph - N/A   Clear
2:52 PM 75.2 °F - 44.6 °F 34% 29.92 in 8.0 mi South 8.1 mph - N/A   Clear
3:52 PM 77.0 °F - 45.0 °F 32% 29.90 in 9.0 mi SSW 6.9 mph - N/A   Clear
4:52 PM 75.9 °F - 45.0 °F 33% 29.89 in 8.0 mi South 5.8 mph - N/A   Clear
5:52 PM 75.0 °F - 44.1 °F 33% 29.90 in 8.0 mi SSW 4.6 mph - N/A   Clear
6:52 PM 73.0 °F - 45.0 °F 37% 29.91 in 8.0 mi Calm Calm - N/A   Clear
7:52 PM 66.0 °F - 45.0 °F 47% 29.91 in 8.0 mi SSE 5.8 mph - N/A   Scattered Clouds
8:52 PM 64.4 °F - 46.4 °F 52% 29.93 in 10.0 mi South 5.8 mph - N/A   Mostly Cloudy
9:52 PM 61.0 °F - 46.9 °F 60% 29.94 in 9.0 mi East 4.6 mph - N/A   Overcast
10:52 PM 61.0 °F - 48.0 °F 62% 29.94 in 8.0 mi Calm Calm - N/A   Clear
11:52 PM 57.9 °F - 46.9 °F 67% 29.94 in 8.0 mi SE 3.5 mph - N/A   Clear